This demonstration page uses our WeatherBlox Daily Observations layout. Learn more.

Hourly Observations for July 26, 2019

Temp ( °F °C ) Dew Point ( °F °C ) Humidity (%) Winds ( mph kmh ) Pressure ( in mb ) Visibility ( mi km ) Precip ( " mm )
12:15 am 00:15 Clear 69 20.3 61 16.1 77 77 S 6 9 29.94 1014 10 16.09344 0 0
12:35 am 00:35 Clear 68 20 61 16.2 79 79 S 6 9 29.94 1014 10 16.09344 0 0
12:55 am 00:55 Clear 67 19.6 61 16.2 81 81 S 7 11 29.97 1015 10 16.09344 0 0
1:15 am 01:15 Clear 67 19.5 61 16.1 81 81 S 6 9 29.97 1015 10 16.09344 0 0
1:35 am 01:35 Clear 67 19.3 61 16 81 81 S 6 9 29.97 1015 10 16.09344 0 0
1:55 am 01:55 Clear 67 19.2 60 15.8 81 81 S 6 9 29.97 1015 10 16.09344 0 0
2:15 am 02:15 Clear 67 19.5 60 15.5 78 78 S 7 11 29.97 1015 10 16.09344 0 0
2:35 am 02:35 Clear 68 19.8 59 15.1 74 74 S 7 11 29.94 1014 10 16.09344 0 0
2:55 am 02:55 Clear 68 19.8 59 15 74 74 S 6 9 29.94 1014 10 16.09344 0 0
3:15 am 03:15 Clear 66 19 59 15 78 78 S 7 11 29.97 1015 10 16.09344 0 0
3:35 am 03:35 Clear 67 19.7 58 14.7 73 73 S 8 13 29.97 1015 10 16.09344 0 0
3:55 am 03:55 Clear 67 19.5 58 14.5 73 73 S 8 13 29.97 1015 10 16.09344 0 0
4:15 am 04:15 Clear 67 19.5 58 14.5 73 73 S 9 15 29.97 1015 10 16.09344 0 0
4:35 am 04:35 Clear 66 19.1 58 14.5 75 75 S 8 13 29.97 1015 10 16.09344 0 0
4:55 am 04:55 Clear 66 18.8 58 14.5 76 76 S 8 13 29.97 1015 10 16.09344 0 0
5:15 am 05:15 Clear 65 18.6 58 14.5 77 77 S 8 13 29.97 1015 10 16.09344 0 0
5:35 am 05:35 Clear 65 18.5 58 14.5 78 78 S 7 11 29.97 1015 10 16.09344 0 0
5:55 am 05:55 Clear 66 18.7 58 14.2 75 75 S 10 17 29.97 1015 10 16.09344 0 0
6:15 am 06:15 Clear 66 19 57 14.1 73 73 S 10 17 29.97 1015 10 16.09344 0 0
6:35 am 06:35 Sunny 66 18.7 57 14.1 75 75 S 10 17 29.97 1015 10 16.09344 0 0
6:55 am 06:55 Sunny 67 19.2 57 14.1 72 72 SSW 12 19 29.97 1015 10 16.09344 0 0
7:15 am 07:15 Sunny 67 19.6 57 14.1 71 71 SSW 9 15 29.97 1015 10 16.09344 0 0
7:35 am 07:35 Sunny 68 20 58 14.4 70 70 S 8 13 29.94 1014 10 16.09344 0 0
7:55 am 07:55 Sunny 69 20.6 58 14.6 69 69 S 8 13 29.94 1014 10 16.09344 0 0
8:15 am 08:15 Sunny 71 21.4 59 14.8 66 66 SSW 9 15 29.94 1014 10 16.09344 0 0
8:35 am 08:35 Sunny 72 22.2 59 14.8 63 63 SSW 7 11 29.97 1015 10 16.09344 0 0
8:55 am 08:55 Sunny 73 23 59 15 61 61 SSW 8 13 29.97 1015 10 16.09344 0 0
9:15 am 09:15 Sunny 75 23.7 59 15.1 59 59 SSW 9 15 29.94 1014 10 16.09344 0 0
9:35 am 09:35 Sunny 75 24 59 14.8 57 57 SSW 14 22 29.94 1014 10 16.09344 0 0
9:55 am 09:55 Sunny 76 24.6 59 15.2 56 56 SSW 13 20 29.94 1014 10 16.09344 0 0
10:15 am 10:15 Sunny 77 25.2 60 15.6 55 55 SSW 13 20 29.94 1014 10 16.09344 0 0
10:35 am 10:35 Sunny 78 25.8 61 16.1 55 55 SSW 13 20 29.94 1014 10 16.09344 0 0
10:55 am 10:55 Sunny 80 26.4 63 17 56 56 SSW 13 20 29.94 1014 10 16.09344 0 0
11:15 am 11:15 Sunny 80 26.9 64 17.6 57 57 S 10 17 29.94 1014 10 16.09344 0 0
11:35 am 11:35 Sunny 82 27.5 65 18.1 57 57 S 7 11 29.91 1013 10 16.09344 0 0
11:55 am 11:55 Sunny 83 28.1 65 18.4 56 56 S 9 15 29.91 1013 10 16.09344 0 0
12:15 pm 12:15 Sunny 82 28 65 18.4 56 56 S 10 17 29.91 1013 10 16.09344 0 0
12:35 pm 12:35 Sunny 83 28.4 66 18.7 56 56 SSE 8 13 29.94 1014 10 16.09344 0 0
12:55 pm 12:55 Sunny 83 28.6 66 18.8 55 55 SSE 8 13 29.94 1014 10 16.09344 0 0
1:15 pm 13:15 Sunny 84 28.9 66 18.7 54 54 SSE 10 17 29.94 1014 10 16.09344 0 0
1:35 pm 13:35 Sunny 84 29.1 66 18.7 53 53 S 12 19 29.94 1014 10 16.09344 0 0
1:55 pm 13:55 Sunny 85 29.5 65 18.4 51 51 SSE 10 17 29.91 1013 10 16.09344 0 0
2:15 pm 14:15 Sunny 85 29.5 64 18 50 50 SSE 10 17 29.91 1013 10 16.09344 0 0
2:35 pm 14:35 Sunny 86 30 66 18.8 51 51 SSE 12 19 29.91 1013 10 16.09344 0 0
2:55 pm 14:55 Sunny 87 30.3 66 18.7 50 50 S 12 19 29.91 1013 10 16.09344 0 0
3:15 pm 15:15 Sunny 87 30.6 65 18.5 48 48 S 12 19 29.91 1013 10 16.09344 0 0
3:35 pm 15:35 Sunny 88 31 65 18.3 47 47 SSE 10 17 29.91 1013 10 16.09344 0 0
3:55 pm 15:55 Sunny 88 31 66 18.9 48 48 SSE 9 15 29.91 1013 10 16.09344 0 0
4:15 pm 16:15 Sunny 88 31.2 66 18.9 48 48 SSE 8 13 29.91 1013 10 16.09344 0 0
4:35 pm 16:35 Sunny 89 31.5 66 18.9 47 47 SSE 8 13 29.88 1012 10 16.09344 0 0
4:55 pm 16:55 Sunny 89 31.6 67 19.5 49 49 SSE 12 19 29.88 1012 10 16.09344 0 0
5:15 pm 17:15 Sunny 88 31 67 19.5 50 50 SSE 9 15 29.85 1011 10 16.09344 0 0
5:35 pm 17:35 Sunny 86 30.2 67 19.4 52 52 SSE 9 15 29.88 1012 10 16.09344 0 0
5:55 pm 17:55 Sunny 86 30.1 68 19.8 54 54 SSE 8 13 29.88 1012 10 16.09344 0 0
6:15 pm 18:15 Sunny 84 29.1 68 19.8 57 57 SSE 7 11 29.88 1012 10 16.09344 0 0
6:35 pm 18:35 Sunny 84 28.7 68 20.2 60 60 SSE 7 11 29.88 1012 10 16.09344 0 0
6:55 pm 18:55 Sunny 83 28.2 68 19.8 60 60 SSE 7 11 29.88 1012 10 16.09344 0 0
7:15 pm 19:15 Sunny 82 27.9 67 19.7 61 61 SE 6 9 29.88 1012 10 16.09344 0 0
7:35 pm 19:35 Sunny 81 27.2 67 19.7 64 64 SSE 6 9 29.88 1012 10 16.09344 0 0
7:55 pm 19:55 Sunny 81 27.2 65 18.1 58 58 SSE 10 17 29.88 1012 10 16.09344 0 0
8:15 pm 20:15 Sunny 80 26.8 64 17.8 58 58 SSE 9 15 29.91 1013 10 16.09344 0 0
8:35 pm 20:35 Sunny 79 26 64 18 61 61 SSE 6 9 29.91 1013 10 16.09344 0 0
8:55 pm 20:55 Sunny 77 25.2 65 18.1 65 65 SSE 6 9 29.94 1014 10 16.09344 0 0
9:15 pm 21:15 Clear 76 24.2 65 18.1 69 69 SSE 7 11 29.94 1014 10 16.09344 0 0
9:35 pm 21:35 Clear 74 23.6 64 17.7 70 70 SSE 5 7 29.97 1015 10 16.09344 0 0
9:55 pm 21:55 Clear 73 23 64 17.5 71 71 SSE 5 7 30 1016 10 16.09344 0 0
10:15 pm 22:15 Clear 73 22.5 63 17.4 73 73 SSE 6 9 30 1016 10 16.09344 0 0
10:35 pm 22:35 Clear 73 23 63 17.2 70 70 S 6 9 30 1016 10 16.09344 0 0
10:55 pm 22:55 Clear 72 22.1 63 17.3 74 74 SSE 5 7 30 1016 10 16.09344 0 0
11:15 pm 23:15 Clear 73 22.5 63 17 71 71 S 7 11 30 1016 10 16.09344 0 0
11:35 pm 23:35 Clear 73 22.5 62 16.6 69 69 S 7 11 30 1016 10 16.09344 0 0
11:55 pm 23:55 Clear 72 22 62 16.6 72 72 S 6 9 30 1016 10 16.09344 0 0

Powered by AerisWeather